7 * 24
多渠道服务支持
FENGYUN 2C(风云二号C星)是中国自主研制的第一代地球同步轨道静止气象卫星,于2004年10月19日发射升空,定点于东经105度赤道上空。它可获取可见光云图、红外云图与水汽分布,能收集气象水文海洋观测数据,播发气象信息,监测空间环境,为天气预报、气候监测和灾害预警提供关键支撑,提升了中国气象观测能力。
中国
(CN)
| 数据来源 | 国际轨道数据 |
| 星历时间: | 2026-03-13T02:48:52+0800 1天前 查看轨道信息 |
| 半长轴: | 42789.362km |
| 偏心率: | 0.0003886 |
| 轨道倾角: | 12.281° |
| 近地点辐角 | 340.136° |
| 升交点赤经 | 31.898° |
| 平近点角 | 218.008° |
| 近地点: | 36394.597km |
| 远地点: | 36427.853km |
| 周期: | 1468.126分钟 |
| 每日圈数: | 0.980842 |